Printer-friendly version

IAU Minor Planet Center

Minor Planet Center

MPEC 2006-K73 : 2006 KJ89

The following Minor Planet Electronic Circular may be linked-to from your own Web pages, but must not otherwise be redistributed electronically.


Read MPEC 2006-K72 Read MPEC 2006-K74


M.P.E.C. 2006-K73                                Issued 2006 May 30, 14:49 UT

     The Minor Planet Electronic Circulars contain information on unusual
         minor planets and routine data on comets.  They are published
   on behalf of Commission 20 of the International Astronomical Union by the
          Minor Planet Center, Smithsonian Astrophysical Observatory,
                          Cambridge, MA 02138, U.S.A.

                  Supported in part by the Brinson Foundation
                  Supported in part by the TABASGO Foundation
             Prepared using the Tamkin Foundation Computer Network

                              MPC@CFA.HARVARD.EDU
          URL http://cfa-www.harvard.edu/iau/mpc.html  ISSN 1523-6714

                                   2006 KJ89

Observations:
     K06K89J* C2006 05 26.35034 17 01 50.54 +10 22 21.4          21.0 V EK073691
     K06K89J  C2006 05 26.36767 17 01 58.18 +10 22 38.8          20.6 V EK073691
     K06K89J  C2006 05 26.38501 17 02 05.98 +10 22 55.7          20.5 V EK073691
     K06K89J tC2006 05 26.43166 17 02 27.28 +10 23 40.8          20.9 V EK073291
     K06K89J tC2006 05 26.43724 17 02 29.91 +10 23 46.9          21.0 V EK073291
     K06K89J tC2006 05 26.44284 17 02 32.43 +10 23 51.2          21.3 V EK073291
     K06K89J  C2006 05 28.34596 17 18 13.50 +10 52 49.3          20.1 V EK073G96
     K06K89J  C2006 05 28.34814 17 18 14.50 +10 52 51.6          19.9 V EK073G96
     K06K89J  C2006 05 28.35039 17 18 15.58 +10 52 53.0          20.3 V EK073G96
     K06K89J  C2006 05 28.35264 17 18 16.66 +10 52 54.9          20.1 V EK073G96
     K06K89J  C2006 05 29.37477 17 26 53.59 +11 05 56.2          20.1 V EK073G96
     K06K89J  C2006 05 29.37849 17 26 55.42 +11 05 59.1          19.9 V EK073G96
     K06K89J  C2006 05 29.38232 17 26 57.30 +11 06 01.4          20.0 V EK073G96
     K06K89J  C2006 05 29.38604 17 26 59.10 +11 06 04.1          20.1 V EK073G96
     K06K89J  C2006 05 29.97842 17 32 05.33 +11 12 17.9                 EK073J95
     K06K89J  C2006 05 29.98061 17 32 06.38 +11 12 20.5          20.0 R EK073J95
     K06K89J 5C2006 05 30.26910 17 34 36.51 +11 15 41.4          20.4 R EK073673
     K06K89J 5C2006 05 30.27153 17 34 37.73 +11 15 42.7                 EK073673
     K06K89J 5C2006 05 30.27859 17 34 41.16 +11 15 46.8                 EK073673
     K06K89J 5C2006 05 30.28310 17 34 43.40 +11 15 50.2                 EK073673
     K06K89J  C2006 05 30.32890 17 35 05.17 +11 16 21.7          20.0 V EK073G96
     K06K89J  C2006 05 30.33443 17 35 07.83 +11 16 25.2          20.4 V EK073G96
     K06K89J  C2006 05 30.34002 17 35 10.53 +11 16 28.7          19.7 V EK073G96
     K06K89J  C2006 05 30.34554 17 35 13.23 +11 16 32.0          20.2 V EK073G96

Observer details:
291 LPL/Spacewatch II.  Observer T. H. Bressi.  1.8-m f/2.7 reflector + CCD.
673 Table Mountain Observatory, Wrightwood.  Observer J. Young.  0.61-m f/16
    Cassegrain + CCD.
691 Steward Observatory, Kitt Peak.  Observer T. H. Bressi.  0.9-m f/3
    reflector + CCD.
G96 Mt. Lemmon Survey.  Observers R. A. Kowalski, A. D. Grauer.  Measurers
    E. C. Beshore, E. J. Christensen, G. J. Garradd, A. R. Gibbs, A. D. Grauer,
    R. E. Hill, R. A. Kowalski, S. M. Larson, R. H. McNaught.  1.5-m reflector
    + CCD.
J95 Great Shefford.  Observer P. Birtwhistle.  0.40-m f/6.0 Schmidt-Cassegrain
    + CCD.

Orbital elements:
2006 KJ89                                                Earth MOID = 0.0922 AU
Epoch 2006 Mar. 6.0 TT = JDT 2453800.5                  MPC
M 334.33567              (2000.0)            P               Q
n   0.27281290     Peri.   95.62370     -0.18881420     +0.98190272
a   2.3544679      Node   163.47063     -0.92020309     -0.17168133
e   0.5371136      Incl.    2.96274     -0.34289279     -0.07995351
P   3.61           H   23.7           G   0.15           U   8
Residuals in seconds of arc
060526 691  1.4+  0.1+    060528 G96  0.1+  0.3-    060530 673  0.1+  0.9+
060526 691  1.4-  0.2+    060528 G96  0.4+  0.3-    060530 673  0.5+  0.6+
060526 691 (2.0-  0.0 )   060529 G96  0.8-  0.2-    060530 673  0.0   0.0
060526 291  0.6-  0.2-    060529 G96  0.1-  0.1+    060530 673  0.4+  0.5+
060526 291  0.6+  0.5+    060529 G96  0.6+  0.2-    060530 G96  0.3+  0.5-
060526 291  0.1-  0.5-    060529 G96  0.8+  0.1-    060530 G96  0.0   0.4-
060528 G96  0.2+  0.4-    060529 J95  0.0   0.5-    060530 G96  0.2-  0.3-
060528 G96  0.2-  0.1+    060529 J95  0.4-  0.6+    060530 G96  0.2+  0.3-

Ephemeris:
2006 KJ89                a,e,i = 2.35, 0.54, 3                   q = 1.0899
Date    TT    R. A. (2000) Decl.     Delta      r     Elong.  Phase     V
2006 05 25    16 51.17   +09 58.9    0.105    1.103   147.2    29.8    20.3
2006 06 04    18 15.76   +11 41.7    0.0981   1.091   139.6    37.1    20.3
2006 06 14    19 35.60   +10 15.3    0.106    1.092   134.3    41.7    20.6
2006 06 24    20 31.80   +07 00.1    0.125    1.107   133.9    41.4    21.0
2006 07 04    21 05.15   +03 16.6    0.150    1.133   138.2    36.7    21.4
2006 07 14    21 22.87   -00 23.7    0.182    1.171   145.6    29.3    21.6
2006 07 24    21 30.60   -03 51.2    0.219    1.218   155.1    20.6    21.8
2006 08 03    21 32.66   -06 57.8    0.265    1.273   165.4    11.6    22.0

Timothy B. Spahr             (C) Copyright 2006 MPC           M.P.E.C. 2006-K73

Read MPEC 2006-K72 Read MPEC 2006-K74


Our Web policy. Index to the CBAT/MPC/ICQ pages.


Valid HTML 4.01!